This demonstration page uses our WeatherBlox Daily Observations layout. Learn more.

Left ArrowRight Arrow

39.29038, -76.61219

Hourly Observations for February 28, 2017

Temp ( °F °C ) Dew Point ( °F °C ) Humidity (%) Winds ( mph kmh ) Pressure ( in mb ) Visibility ( mi km ) Precip ( " mm )
12:54 am 00:54 undefined 50 10 33 0.6 52 52 undefined N/A 30.37 1028 N/A 0.00 0.00
1:54 am 01:54 undefined 50 10 31 -0.6 48 48 undefined N/A 30.35 1028 N/A 0.00 0.00
2:54 am 02:54 undefined 50 10 34 1.1 54 54 undefined N/A 30.33 1027 N/A 0.00 0.00
3:54 am 03:54 undefined 50 10 36 2.2 59 59 undefined N/A 30.32 1027 N/A 0.00 0.00
4:54 am 04:54 undefined 49 9.4 36 2.2 61 61 undefined N/A 30.32 1027 N/A 0.00 0.00
5:54 am 05:54 undefined 49 9.4 36 2.2 61 61 undefined N/A 30.32 1027 N/A 0.00 0.00
6:54 am 06:54 undefined 48 8.9 36 2.2 63 63 undefined N/A 30.30 1026 N/A 0.00 0.00
7:54 am 07:54 undefined 50 10 37 2.8 61 61 undefined N/A 30.33 1027 N/A 0.00 0.00
8:54 am 08:54 undefined 53 11.7 39 3.9 59 59 undefined N/A 30.33 1027 N/A 0.00 0.00
9:54 am 09:54 undefined 55 12.8 40 4.4 57 57 undefined N/A 30.33 1027 N/A 0.00 0.00
10:54 am 10:54 undefined 57 13.9 40 4.4 53 53 undefined N/A 30.32 1027 N/A 0.00 0.00
11:54 am 11:54 undefined 60 15.6 42 5.6 52 52 undefined N/A 30.27 1025 N/A 0.00 0.00
12:54 pm 12:54 undefined 59 15 42 5.6 54 54 undefined N/A 30.20 1023 N/A 0.00 0.00
1:54 pm 13:54 undefined 60 15.6 44 6.7 56 56 undefined N/A 30.19 1022 N/A 0.00 0.00
2:54 pm 14:54 undefined 61 16.1 45 7.2 56 56 undefined N/A 30.16 1021 N/A 0.00 0.00
3:54 pm 15:54 undefined 61 16.1 46 7.8 58 58 undefined N/A 30.15 1021 N/A 0.00 0.00
4:54 pm 16:54 undefined 61 16.1 47 8.3 60 60 undefined N/A 30.14 1021 N/A 0.00 0.00
5:54 pm 17:54 undefined 60 15.6 49 9.4 67 67 undefined N/A 30.15 1021 N/A 0.00 0.00
6:54 pm 18:54 undefined 58 14.4 52 11.1 81 81 undefined N/A 30.11 1020 N/A 0.07 1.78
7:54 pm 19:54 undefined 58 14.4 53 11.7 84 84 undefined N/A 30.11 1020 N/A 0.00 0.00
8:54 pm 20:54 undefined 57 13.9 54 12.2 90 90 undefined N/A 30.06 1018 N/A 0.01 0.25
9:54 pm 21:54 undefined 57 13.9 54 12.2 90 90 undefined N/A 30.05 1018 N/A 0.03 0.76
10:54 pm 22:54 undefined 57 13.9 54 12.2 90 90 undefined N/A 30.03 1017 N/A 0.02 0.51
11:54 pm 23:54 undefined 58 14.4 55 12.8 90 90 undefined N/A 30.01 1016 N/A 0.06 1.52

Powered by AerisWeather